"Pseudo-MPEC" for C07PYDZ

Created 2026 Jun 8 9:35:01 UT using Find_Orb

Click here for an explanation of pseudo-MPECs

 
 Astrometry: 
     C07PYDZ*0C2026 05 27.18346814 18 48.524+48 26 30.16   ~5T3Z 20.71GVNEOCPV00
     C07PYDZ 0C2026 05 27.18904914 18 48.445+48 26 28.64   ~5T3Z 21.86GVNEOCPV00
     C07PYDZ 0C2026 05 27.19463614 18 48.391+48 26 26.74   ~5T3Z       VNEOCPV00
     C07PYDZ 0C2026 05 27.20021314 18 48.323+48 26 25.04   ~5T3Z 20.94GVNEOCPV00

Station data:
(V00) Kitt Peak-Bok  (N31.963125 W111.600190)  US/Arizona. Measurers T.
   Beuden, V. F. Carvajal, D. Fay, J. B. Fazekas, D. C. Fuls, A. R. Gibbs, A.
   D. Grauer, H. Gröller, J. K. Hogan, R. A. Kowalski, S. M. Larson, G. J.
   Leonard, D. Rankin, R. L. Seaman, F. C. Shelly, K. W. Wierzchoś. 2.25-m
   reflector + 4x4K mosaic CCD.

Orbital elements:  C07PYDZ
   Perihelion 2026 Jul 7.419347 +/- 83.2 TT = 10:03:51.5 (JD 2461228.919347)
Epoch 2026 May 27.0 TT = JDT 2461187.5                           AutoNEOCP
M 350.463491861 +/- 40              (J2000 ecliptic)
n   0.230242842 +/- 0.297           Peri.   87.965089 +/- 80
a   2.636403971 +/- 2.27            Node   157.184155 +/- 35
e   0.30854214 +/- 0.283            Incl.   38.836459 +/- 13
P   4.28073                H 18.21  G  0.15   U 11.9  SR
q 1.822962231 +/- 0.892    Q 3.449845710 +/- 189
From 4 observations 2026 May 27 (24.1 min); mean residual 0".07
Residuals in arcseconds: 
260527 V00  .05+  .07-    260527 V00  .03+  .04-    
260527 V00  .09-  .13+    260527 V00  .01+  .01-    

Ephemerides (geocentric):
Date (UTC) HH   RA             Dec           delta  r     elong  mag " sig PA
---- --------  ------------   ------------  ------ ------ -----  --- --------
2026 06 08 10  14 19 29.538   +46 47 05.62  1.3461 1.8344 101.0 21.6 3026  55
2026 06 08 11  14 19 30.173   +46 46 38.62  1.3463 1.8344 101.0 21.6 3048  55
2026 06 08 12  14 19 30.811   +46 46 11.58  1.3465 1.8344 101.0 21.6 3070  54
2026 06 08 13  14 19 31.453   +46 45 44.50  1.3467 1.8343 101.0 21.6 3092  54
2026 06 08 14  14 19 32.098   +46 45 17.37  1.3468 1.8343 101.0 21.6 3115  54
2026 06 08 15  14 19 32.746   +46 44 50.20  1.3470 1.8343 101.0 21.6 3137  54
2026 06 08 16  14 19 33.398   +46 44 22.99  1.3472 1.8343 100.9 21.6 3160  54
2026 06 08 17  14 19 34.053   +46 43 55.74  1.3474 1.8342 100.9 21.6 3183  53
2026 06 08 18  14 19 34.711   +46 43 28.45  1.3476 1.8342 100.9 21.6 3207  53
2026 06 08 19  14 19 35.373   +46 43 01.11  1.3477 1.8342 100.9 21.6 3231  53
2026 06 08 20  14 19 36.039   +46 42 33.74  1.3479 1.8341 100.9 21.6 3255  53
2026 06 08 21  14 19 36.707   +46 42 06.32  1.3481 1.8341 100.9 21.6 3279  52
2026 06 08 22  14 19 37.379   +46 41 38.86  1.3483 1.8341 100.9 21.6 3303  52
2026 06 08 23  14 19 38.055   +46 41 11.35  1.3484 1.8340 100.8 21.6 3328  52
2026 06 09 00  14 19 38.733   +46 40 43.81  1.3486 1.8340 100.8 21.6 3353  52
2026 06 09 01  14 19 39.416   +46 40 16.22  1.3488 1.8340 100.8 21.6 3379  52
2026 06 09 02  14 19 40.101   +46 39 48.60  1.3490 1.8339 100.8 21.6 3405  51
2026 06 09 03  14 19 40.790   +46 39 20.93  1.3492 1.8339 100.8 21.6 3431  51
2026 06 09 04  14 19 41.482   +46 38 53.21  1.3493 1.8339 100.8 21.6 3457  51
2026 06 09 05  14 19 42.178   +46 38 25.46  1.3495 1.8338 100.8 21.6 3484  51
2026 06 09 06  14 19 42.877   +46 37 57.67  1.3497 1.8338 100.7 21.6 3511  51
2026 06 09 07  14 19 43.580   +46 37 29.83  1.3499 1.8338 100.7 21.6 3539  50
2026 06 09 08  14 19 44.286   +46 37 01.95  1.3501 1.8337 100.7 21.6 3566  50
2026 06 09 09  14 19 44.995   +46 36 34.04  1.3502 1.8337 100.7 21.6 3594  50
2026 06 09 10  14 19 45.707   +46 36 06.08  1.3504 1.8337 100.7 21.6 3623  50
2026 06 09 11  14 19 46.423   +46 35 38.07  1.3506 1.8336 100.7 21.6 3652  49
2026 06 09 12  14 19 47.143   +46 35 10.03  1.3508 1.8336 100.7 21.6 3681  49
2026 06 09 13  14 19 47.866   +46 34 41.95  1.3509 1.8336 100.6 21.6 3711  49
2026 06 09 14  14 19 48.592   +46 34 13.82  1.3511 1.8335 100.6 21.6 3741  49
2026 06 09 15  14 19 49.321   +46 33 45.66  1.3513 1.8335 100.6 21.6 3771  49
2026 06 09 16  14 19 50.054   +46 33 17.45  1.3515 1.8335 100.6 21.6 3802  48
2026 06 09 17  14 19 50.791   +46 32 49.20  1.3517 1.8335 100.6 21.6 3833  48
2026 06 09 18  14 19 51.530   +46 32 20.91  1.3518 1.8334 100.6 21.6 3865  48
2026 06 09 19  14 19 52.273   +46 31 52.58  1.3520 1.8334 100.6 21.6 3897  48
2026 06 09 20  14 19 53.020   +46 31 24.20  1.3522 1.8334 100.5 21.6 3930  48
2026 06 09 21  14 19 53.770   +46 30 55.79  1.3524 1.8333 100.5 21.6 3963  47
2026 06 09 22  14 19 54.523   +46 30 27.34  1.3526 1.8333 100.5 21.6 3996  47
2026 06 09 23  14 19 55.279   +46 29 58.84  1.3527 1.8333 100.5 21.6 4030  47
2026 06 10 00  14 19 56.039   +46 29 30.30  1.3529 1.8332 100.5 21.6 4065  47
2026 06 10 01  14 19 56.803   +46 29 01.73  1.3531 1.8332 100.5 21.6 4100  46
2026 06 10 02  14 19 57.569   +46 28 33.11  1.3533 1.8332 100.5 21.6 4136  46
2026 06 10 03  14 19 58.339   +46 28 04.45  1.3534 1.8331 100.4 21.6 4172  46
2026 06 10 04  14 19 59.113   +46 27 35.75  1.3536 1.8331 100.4 21.6 4208  46
2026 06 10 05  14 19 59.890   +46 27 07.01  1.3538 1.8331 100.4 21.6 4245  46
2026 06 10 06  14 20 00.670   +46 26 38.22  1.3540 1.8330 100.4 21.6 4283  45
2026 06 10 07  14 20 01.454   +46 26 09.40  1.3542 1.8330 100.4 21.6 4321  45
2026 06 10 08  14 20 02.241   +46 25 40.54  1.3543 1.8330 100.4 21.6 4360  45
2026 06 10 09  14 20 03.031   +46 25 11.63  1.3545 1.8330 100.4 21.6 4400  45